DW2019 Weather Reports


Display with metric or nautical units.
time (UTC)temp
F
wind
direction
speed
MPH
gust
MPH
rain 1hr
in
rain 24hr
in
rain mn
in
humidity
%
barometer
mb
20260504070121 49 236 0.0 0.0 0.00 0.06 0.00 78 1003.8
20260504060125 53 236 0.0 0.0 0.00 0.06 0.00 72 1004.8
20260504050641 56 236 0.0 0.0 0.00 0.06 0.00 66 1004.8
20260504050128 56 236 0.0 3.0 0.00 0.06 0.00 66 1004.9
20260504045632 56 236 1.0 3.0 0.00 0.06 0.06 67 1004.9
20260504045115 56 235 0.0 8.0 0.00 0.06 0.06 68 1004.9
20260504044625 56 235 0.0 8.0 0.00 0.06 0.06 67 1005.0
20260504044130 56 237 0.0 0.0 0.00 0.06 0.06 67 1004.9
20260504043641 56 237 0.0 0.0 0.00 0.06 0.06 66 1004.8
20260504043125 57 237 0.0 0.0 0.00 0.06 0.06 64 1004.8
20260504042638 57 237 0.0 0.0 0.00 0.06 0.06 64 1004.8
20260504042123 58 237 0.0 0.0 0.00 0.06 0.06 63 1004.9
20260504041627 58 237 0.0 0.0 0.00 0.06 0.06 62 1004.9
20260504041112 59 237 0.0 0.0 0.00 0.06 0.06 61 1004.9
20260504040623 59 237 0.0 1.0 0.00 0.06 0.06 61 1004.8
20260504040128 59 237 0.0 2.0 0.00 0.06 0.06 60 1004.8
20260504035614 59 237 0.0 4.0 0.00 0.06 0.06 60 1004.8
20260504035125 60 237 0.0 4.0 0.00 0.06 0.06 59 1004.8
20260504034631 60 236 0.0 2.0 0.00 0.06 0.06 59 1004.8
20260504034117 60 236 0.0 3.0 0.00 0.06 0.06 59 1004.8
20260504033647 60 236 1.0 3.0 0.00 0.06 0.06 58 1004.9
20260504033137 61 236 0.0 3.0 0.00 0.06 0.06 58 1004.9
20260504032621 61 236 0.0 5.0 0.00 0.06 0.06 58 1004.9
20260504032126 61 236 1.0 5.0 0.00 0.06 0.06 57 1004.9
20260504031618 61 237 0.0 3.0 0.00 0.06 0.06 57 1005.0
20260504031123 62 237 0.0 3.0 0.00 0.06 0.06 57 1005.0
20260504030636 62 237 1.0 3.0 0.00 0.06 0.06 57 1004.9
20260504030119 62 237 1.0 5.0 0.00 0.06 0.06 56 1004.8
20260504025645 62 238 1.0 5.0 0.00 0.06 0.06 56 1004.8
20260504025113 63 231 1.0 5.0 0.00 0.06 0.06 56 1004.9
20260504024617 63 230 1.0 5.0 0.00 0.06 0.06 55 1004.8
20260504024122 63 210 1.0 4.0 0.00 0.06 0.06 55 1004.8
20260504023613 63 210 1.0 4.0 0.00 0.06 0.06 54 1004.6
20260504023118 64 217 2.0 5.0 0.00 0.06 0.06 53 1004.6
20260504022624 64 231 1.0 6.0 0.00 0.06 0.06 53 1004.6
20260504022115 64 190 2.0 8.0 0.00 0.06 0.06 53 1004.5
20260504021621 64 190 3.0 8.0 0.00 0.06 0.06 53 1004.4
20260504021126 65 191 2.0 8.0 0.00 0.06 0.06 53 1004.4
20260504020618 65 207 3.0 8.0 0.00 0.06 0.06 52 1004.4
20260504020123 65 221 3.0 7.0 0.00 0.06 0.06 52 1004.4
20260504015636 65 188 3.0 8.0 0.00 0.06 0.06 52 1004.2
20260504015119 65 230 3.0 7.0 0.00 0.06 0.06 52 1004.2
20260504014624 65 175 3.0 7.0 0.00 0.06 0.06 52 1004.2
20260504014136 65 205 3.0 6.0 0.00 0.06 0.06 52 1004.2
20260504013619 65 200 3.0 7.0 0.00 0.06 0.06 52 1004.2
20260504013125 65 226 3.0 7.0 0.00 0.06 0.06 52 1004.1
20260504012636 66 252 2.0 7.0 0.00 0.06 0.06 52 1003.9
20260504012121 66 209 2.0 6.0 0.00 0.06 0.06 51 1004.0
20260504011646 66 200 2.0 5.0 0.00 0.06 0.06 51 1004.0
20260504011136 66 200 2.0 5.0 0.00 0.06 0.06 51 1004.0
20260504010647 67 200 2.0 6.0 0.00 0.06 0.06 51 1004.1
20260504010200 67 197 2.0 6.0 0.00 0.06 0.06 50 1004.0
20260504005621 67 202 2.0 6.0 0.00 0.06 0.06 50 1004.1
20260504005125 67 209 1.0 7.0 0.00 0.06 0.06 50 1003.9
20260504004634 68 214 2.0 8.0 0.00 0.06 0.06 49 1004.0
20260504004114 68 192 3.0 8.0 0.00 0.06 0.06 49 1004.3
20260504003617 68 207 3.0 8.0 0.00 0.06 0.06 48 1004.1
20260504003127 68 188 3.0 7.0 0.00 0.06 0.06 48 1004.1
20260504002631 69 194 3.0 7.0 0.00 0.06 0.06 48 1004.2
20260504002116 69 244 3.0 8.0 0.00 0.06 0.06 47 1004.2
20260504001628 69 202 3.0 7.0 0.00 0.06 0.06 46 1004.2
20260504001118 70 246 3.0 8.0 0.00 0.06 0.06 46 1004.1
20260504000621 70 213 3.0 9.0 0.00 0.06 0.06 45 1004.1
20260504000133 70 242 2.0 11.0 0.00 0.06 0.06 45 1004.1
20260503235618 70 203 4.0 11.0 0.00 0.06 0.06 43 1004.2
20260503235123 70 242 3.0 8.0 0.00 0.06 0.06 44 1004.2
20260503234634 70 239 4.0 8.0 0.00 0.06 0.06 43 1004.1
20260503234118 70 231 3.0 9.0 0.00 0.06 0.06 43 1004.2
20260503233623 71 200 3.0 10.0 0.00 0.06 0.06 43 1004.2
20260503233135 71 257 4.0 10.0 0.00 0.06 0.06 43 1004.1
20260503232621 71 187 4.0 11.0 0.00 0.06 0.06 42 1004.1
20260503232152 71 235 3.0 8.0 0.00 0.06 0.06 42 1004.0
20260503231616 71 216 4.0 10.0 0.00 0.06 0.06 41 1004.1
20260503231121 72 192 5.0 10.0 0.00 0.06 0.06 41 1004.0
20260503230632 72 215 6.0 11.0 0.00 0.06 0.06 41 1004.2
20260503230137 72 198 6.0 11.0 0.00 0.06 0.06 41 1004.2
20260503225629 72 191 5.0 10.0 0.00 0.06 0.06 41 1004.2
20260503225114 72 178 4.0 10.0 0.00 0.06 0.06 42 1004.2
20260503224619 72 234 4.0 9.0 0.00 0.06 0.06 41 1004.2
20260503224131 72 173 3.0 9.0 0.00 0.06 0.06 41 1004.3
20260503223614 72 179 3.0 11.0 0.00 0.06 0.06 43 1004.3
20260503223118 72 200 5.0 13.0 0.00 0.06 0.06 41 1004.4
20260503222629 72 234 6.0 13.0 0.00 0.06 0.06 42 1004.5
20260503222115 72 239 6.0 13.0 0.00 0.06 0.06 42 1004.5
20260503221619 72 209 5.0 15.0 0.00 0.06 0.06 41 1004.6
20260503221131 72 246 7.0 15.0 0.00 0.06 0.06 42 1004.5
20260503220615 72 233 7.0 18.0 0.00 0.06 0.06 41 1004.5
20260503220120 72 250 6.0 18.0 0.00 0.06 0.06 42 1004.6
20260503215631 72 208 7.0 18.0 0.00 0.06 0.06 42 1004.6
20260503215116 72 237 6.0 18.0 0.00 0.06 0.06 41 1004.6
20260503214647 72 222 9.0 17.0 0.00 0.06 0.06 41 1004.6
20260503214131 73 254 4.0 13.0 0.00 0.06 0.06 42 1004.6
20260503213616 73 238 4.0 11.0 0.00 0.06 0.06 42 1004.7
20260503213123 72 237 4.0 11.0 0.00 0.06 0.06 43 1004.8
20260503212624 72 267 5.0 13.0 0.00 0.06 0.06 44 1004.7
20260503212133 71 180 7.0 13.0 0.00 0.06 0.06 43 1004.7
20260503211617 71 219 7.0 17.0 0.00 0.06 0.06 43 1004.7
20260503211148 71 222 9.0 17.0 0.00 0.06 0.06 43 1004.8
20260503210629 71 207 6.0 18.0 0.00 0.06 0.06 44 1004.8
20260503210119 71 239 6.0 14.0 0.00 0.06 0.06 45 1004.9
20260503205645 71 207 7.0 11.0 0.00 0.06 0.06 44 1005.2
20260503205136 71 242 7.0 14.0 0.00 0.06 0.06 42 1005.2
20260503204639 71 173 5.0 19.0 0.00 0.06 0.06 43 1005.1
20260503204127 71 238 6.0 19.0 0.00 0.06 0.06 43 1005.2
20260503203628 71 250 2.0 12.0 0.00 0.06 0.06 44 1005.3
20260503203136 70 187 3.0 16.0 0.00 0.06 0.06 43 1005.6
20260503202619 70 215 6.0 16.0 0.00 0.06 0.06 42 1005.6
20260503202121 70 266 5.0 17.0 0.00 0.06 0.06 44 1005.8
20260503201631 70 216 6.0 17.0 0.00 0.06 0.06 43 1005.9
20260503201113 70 150 7.0 20.0 0.00 0.06 0.06 44 1005.8
20260503200614 70 220 7.0 17.0 0.00 0.06 0.06 43 1006.0
20260503200125 69 225 5.0 18.0 0.00 0.06 0.06 45 1006.0
20260503195627 69 212 8.0 18.0 0.00 0.06 0.06 43 1006.1
20260503195113 69 232 8.0 20.0 0.00 0.06 0.06 43 1006.1
20260503194624 69 233 7.0 20.0 0.00 0.06 0.06 43 1006.1
20260503194129 70 229 9.0 17.0 0.00 0.06 0.06 43 1006.1
20260503193613 70 205 5.0 13.0 0.00 0.06 0.06 45 1006.2
20260503193144 69 213 5.0 16.0 0.00 0.06 0.06 43 1006.3
20260503192634 70 241 8.0 16.0 0.00 0.06 0.06 44 1006.3
20260503192116 69 225 6.0 17.0 0.00 0.06 0.06 47 1006.4
20260503191621 68 167 8.0 18.0 0.00 0.06 0.06 45 1006.4
20260503191130 68 226 10.0 20.0 0.00 0.06 0.06 44 1006.6
20260503190616 68 227 9.0 21.0 0.00 0.06 0.06 44 1006.5
20260503190118 69 210 11.0 21.0 0.00 0.06 0.06 45 1006.5
20260503185627 68 215 6.0 18.0 0.00 0.06 0.06 45 1006.6
20260503185113 68 228 9.0 18.0 0.00 0.06 0.06 44 1006.7
20260503184616 67 251 9.0 16.0 0.00 0.06 0.06 47 1006.8
20260503184123 67 207 9.0 19.0 0.00 0.06 0.06 46 1007.0
20260503183626 67 206 10.0 18.0 0.00 0.06 0.06 46 1007.3
20260503183114 66 202 9.0 18.0 0.00 0.06 0.06 47 1007.3
20260503182615 66 246 8.0 20.0 0.00 0.06 0.06 47 1007.3
20260503182124 66 208 9.0 21.0 0.00 0.06 0.06 46 1007.5
20260503181626 66 221 9.0 21.0 0.00 0.06 0.06 45 1007.6
20260503181129 65 178 10.0 21.0 0.00 0.06 0.06 45 1007.8
20260503180618 65 207 11.0 20.0 0.00 0.06 0.06 45 1007.8
20260503180121 65 240 12.0 24.0 0.00 0.06 0.06 44 1007.9
20260503175627 65 226 11.0 24.0 0.00 0.06 0.06 45 1007.9
20260503175116 65 221 8.0 19.0 0.00 0.06 0.06 46 1008.0
20260503174640 65 259 10.0 18.0 0.00 0.06 0.06 46 1008.0
20260503174147 64 190 10.0 15.0 0.00 0.06 0.06 46 1008.0
20260503173636 64 213 12.0 20.0 0.00 0.06 0.06 46 1008.1
20260503173138 63 167 10.0 21.0 0.00 0.06 0.06 47 1008.0
20260503172644 63 98 11.0 21.0 0.00 0.06 0.06 47 1008.1
20260503172126 63 218 9.0 18.0 0.00 0.06 0.06 48 1008.2
20260503171634 63 200 10.0 18.0 0.00 0.06 0.06 48 1008.3
20260503171141 63 208 10.0 17.0 0.00 0.06 0.06 49 1008.3
20260503170620 62 221 7.0 17.0 0.00 0.06 0.06 50 1008.3
20260503170149 62 209 8.0 17.0 0.00 0.06 0.06 52 1008.5
20260503160116 52 208 3.0 8.0 0.00 0.06 0.06 69 1010.2
20260503150629 48 173 3.0 7.0 0.01 0.06 0.06 78 1011.1
20260503150137 48 186 2.0 6.0 0.01 0.06 0.06 79 1011.4
20260503140115 46 188 0.0 5.0 0.01 0.05 0.05 84 1012.4
20260503131126 47 205 2.0 6.0 0.02 0.04 0.04 81 1013.0
20260503130612 47 205 2.0 6.0 0.03 0.04 0.04 81 1013.0
20260503130145 47 205 0.0 5.0 0.03 0.04 0.04 82 1013.1
20260503120117 48 249 5.0 9.0 0.00 0.00 0.00 70 1014.2
20260503110625 47 195 4.0 8.0 0.00 0.00 0.00 63 1012.3
20260503110128 47 190 4.0 8.0 0.00 0.00 0.00 63 1012.3
20260503100148 47 192 1.0 7.0 0.00 0.00 0.00 64 1013.1
20260503090131 46 184 4.0 8.0 0.00 0.00 0.00 63 1013.2
20260503081631 46 164 3.0 6.0 0.00 0.00 0.00 62 1013.3
20260503081116 46 193 2.0 6.0 0.00 0.00 0.00 61 1013.4
20260503080646 46 193 2.0 7.0 0.00 0.00 0.00 62 1013.4
20260503080130 46 193 3.0 7.0 0.00 0.00 0.00 61 1013.4